Location: Amsterdam
(30.7274°N, 84.4357°W)
Time: 17:32:32
(UTC+00:00)

Injun/Solrad 3 - Pass Details

Date: 23 February 2026
Orbit: 871 x 985 km, 66.8° (Epoch: 11 March)

Event Time Altitude Azimuth Distance (km) Brightness Sun altitude
Rises 13:31:32 0° 154° (SSE) 3,444 11.7 15.9°
Reaches altitude 10° 13:35:45 10° 124° (SE) 2,511 12.3 16.7°
Maximum altitude 13:37:51 12° 102° (ESE) 2,372 12.3 17.1°
Drops below altitude 10° 13:39:58 10° 81° (E) 2,524 11.3 17.6°
Sets 13:44:11 0° 52° (NE) 3,482 11.3 18.4°
